Time,TemperatureF,DewpointF,PressureIn,WindDirection,WindDirectionDegrees,WindSpeedMPH,WindSpeedGustMPH,Humidity,HourlyPrecipIn,Conditions,Clouds,dailyrainin,SoftwareType,DateUTC
2013-02-02 00:03:00,14.0,9.0,30.07,WSW,246,4.0,9.0,79,0.00,,,0.00,,2013-02-02 05:03:00,
2013-02-02 00:12:00,14.0,9.0,30.07,WSW,246,4.0,9.0,79,0.00,,,0.00,,2013-02-02 05:12:00,
2013-02-02 00:22:00,14.0,9.0,30.07,WSW,238,1.0,3.0,80,0.00,,,0.00,,2013-02-02 05:22:00,
2013-02-02 00:33:00,14.0,9.0,30.06,SW,214,2.0,4.0,80,0.00,,,0.00,,2013-02-02 05:33:00,
2013-02-02 00:41:00,14.0,9.0,30.06,SW,214,2.0,4.0,80,0.00,,,0.00,,2013-02-02 05:41:00,
2013-02-02 00:52:00,14.0,9.0,30.06,SSW,209,0.0,5.0,79,0.00,,,0.00,,2013-02-02 05:52:00,
2013-02-02 01:02:00,14.0,9.0,30.06,WNW,302,1.0,6.0,80,0.00,,,0.00,,2013-02-02 06:02:00,
2013-02-02 01:12:00,14.0,9.0,30.06,WNW,302,1.0,6.0,80,0.00,,,0.00,,2013-02-02 06:12:00,
2013-02-02 01:22:00,14.0,9.0,30.06,WSW,239,2.0,3.0,80,0.00,,,0.00,,2013-02-02 06:22:00,
2013-02-02 01:32:00,14.0,9.0,30.05,SSW,211,1.0,10.0,80,0.00,,,0.00,,2013-02-02 06:32:00,
2013-02-02 01:42:00,14.0,9.0,30.05,SSW,211,1.0,10.0,80,0.00,,,0.00,,2013-02-02 06:42:00,
2013-02-02 01:52:00,15.0,10.0,30.04,SW,217,5.0,5.0,80,0.00,,,0.00,,2013-02-02 06:52:00,
2013-02-02 02:02:00,15.0,10.0,30.04,WSW,246,0.0,4.0,80,0.00,,,0.00,,2013-02-02 07:02:00,
2013-02-02 02:12:00,15.0,10.0,30.04,SW,223,4.0,11.0,80,0.00,,,0.00,,2013-02-02 07:12:00,
2013-02-02 02:21:00,15.0,10.0,30.04,SW,223,4.0,11.0,80,0.00,,,0.00,,2013-02-02 07:21:00,
2013-02-02 02:32:00,15.0,10.0,30.03,SW,234,0.0,9.0,81,0.00,,,0.00,,2013-02-02 07:32:00,
2013-02-02 02:42:00,15.0,10.0,30.03,SW,234,0.0,9.0,81,0.00,,,0.00,,2013-02-02 07:42:00,
2013-02-02 02:52:00,15.0,10.0,30.03,SSW,200,5.0,5.0,81,0.00,,,0.00,,2013-02-02 07:52:00,
2013-02-02 03:01:00,15.0,11.0,30.03,West,271,0.0,4.0,82,0.00,,,0.00,,2013-02-02 08:01:00,
2013-02-02 03:11:00,15.0,11.0,30.03,West,271,0.0,4.0,82,0.00,,,0.00,,2013-02-02 08:11:00,
2013-02-02 03:21:00,15.0,11.0,30.03,WSW,245,0.0,7.0,82,0.00,,,0.00,,2013-02-02 08:21:00,
2013-02-02 03:31:00,15.0,11.0,30.02,WNW,288,0.0,4.0,83,0.00,,,0.00,,2013-02-02 08:31:00,
2013-02-02 03:41:00,15.0,11.0,30.02,WNW,288,0.0,4.0,83,0.00,,,0.00,,2013-02-02 08:41:00,
2013-02-02 03:53:00,15.0,11.0,30.02,South,190,0.0,11.0,82,0.00,,,0.00,,2013-02-02 08:53:00,
2013-02-02 04:01:00,15.0,11.0,30.01,West,279,0.0,9.0,82,0.00,,,0.00,,2013-02-02 09:01:00,
2013-02-02 04:11:00,15.0,11.0,30.01,West,279,0.0,9.0,82,0.00,,,0.00,,2013-02-02 09:11:00,
2013-02-02 04:22:00,15.0,11.0,30.01,SW,227,0.0,4.0,82,0.00,,,0.00,,2013-02-02 09:22:00,
2013-02-02 04:32:00,15.0,11.0,30.00,SW,232,0.0,6.0,82,0.00,,,0.00,,2013-02-02 09:32:00,
2013-02-02 04:42:00,15.0,11.0,30.00,SW,232,0.0,6.0,82,0.00,,,0.00,,2013-02-02 09:42:00,
2013-02-02 04:52:00,15.0,11.0,29.99,SSW,198,0.0,4.0,83,0.00,,,0.00,,2013-02-02 09:52:00,
2013-02-02 05:02:00,15.0,11.0,29.99,West,270,0.0,5.0,83,0.00,,,0.00,,2013-02-02 10:02:00,
2013-02-02 05:11:00,15.0,11.0,29.99,West,270,0.0,5.0,83,0.00,,,0.00,,2013-02-02 10:11:00,
2013-02-02 05:21:00,15.0,11.0,29.98,SW,220,3.0,4.0,84,0.00,,,0.00,,2013-02-02 10:21:00,
2013-02-02 05:32:00,15.0,11.0,29.98,SW,223,0.0,3.0,84,0.00,,,0.00,,2013-02-02 10:32:00,
2013-02-02 05:42:00,15.0,11.0,29.98,SW,223,0.0,3.0,84,0.00,,,0.00,,2013-02-02 10:42:00,
2013-02-02 05:52:00,15.0,11.0,29.98,NW,304,0.0,5.0,85,0.00,,,0.00,,2013-02-02 10:52:00,
2013-02-02 06:02:00,15.0,11.0,29.98,West,267,0.0,1.0,85,0.00,,,0.00,,2013-02-02 11:02:00,
2013-02-02 06:11:00,15.0,11.0,29.98,West,267,0.0,1.0,85,0.00,,,0.00,,2013-02-02 11:11:00,
2013-02-02 06:22:00,15.0,11.0,29.97,SW,216,2.0,4.0,85,0.00,,,0.00,,2013-02-02 11:22:00,
2013-02-02 06:32:00,15.0,12.0,29.97,SSW,213,0.0,3.0,86,0.00,,,0.00,,2013-02-02 11:32:00,
2013-02-02 06:42:00,15.0,12.0,29.97,SSW,213,0.0,3.0,86,0.00,,,0.00,,2013-02-02 11:42:00,
2013-02-02 06:52:00,15.0,12.0,29.97,SW,217,0.0,2.0,86,0.00,,,0.00,,2013-02-02 11:52:00,
2013-02-02 07:02:00,15.0,12.0,29.96,SW,214,1.0,2.0,86,0.00,,,0.00,,2013-02-02 12:02:00,
2013-02-02 07:11:00,15.0,12.0,29.96,SW,214,1.0,2.0,86,0.00,,,0.00,,2013-02-02 12:11:00,
2013-02-02 07:22:00,15.0,12.0,29.96,SW,218,0.0,2.0,86,0.00,,,0.00,,2013-02-02 12:22:00,
2013-02-02 07:32:00,15.0,12.0,29.96,SSW,206,0.0,1.0,86,0.00,,,0.00,,2013-02-02 12:32:00,
2013-02-02 07:42:00,15.0,12.0,29.96,SSW,206,0.0,1.0,86,0.00,,,0.00,,2013-02-02 12:42:00,
2013-02-02 07:52:00,15.0,12.0,29.96,SSW,207,0.0,2.0,86,0.00,,,0.00,,2013-02-02 12:52:00,
2013-02-02 08:03:00,15.0,12.0,29.96,SSW,212,0.0,0.0,86,0.00,,,0.00,,2013-02-02 13:03:00,
2013-02-02 08:11:00,15.0,12.0,29.96,SSW,212,0.0,0.0,86,0.00,,,0.00,,2013-02-02 13:11:00,
2013-02-02 08:22:00,15.0,12.0,29.96,SSW,211,0.0,0.0,86,0.00,,,0.00,,2013-02-02 13:22:00,
2013-02-02 08:32:00,15.0,12.0,29.96,SW,217,0.0,2.0,86,0.00,,,0.00,,2013-02-02 13:32:00,
2013-02-02 08:42:00,15.0,12.0,29.96,SW,217,0.0,2.0,86,0.00,,,0.00,,2013-02-02 13:42:00,
2013-02-02 08:52:00,15.0,12.0,29.96,SSW,206,0.0,2.0,86,0.00,,,0.00,,2013-02-02 13:52:00,
2013-02-02 09:02:00,15.0,12.0,29.96,SSW,212,0.0,0.0,86,0.00,,,0.00,,2013-02-02 14:02:00,
2013-02-02 09:11:00,15.0,12.0,29.96,SSW,212,0.0,0.0,86,0.00,,,0.00,,2013-02-02 14:11:00,
2013-02-02 09:22:00,16.0,13.0,29.96,SSW,212,0.0,1.0,86,0.00,,,0.00,,2013-02-02 14:22:00,
2013-02-02 09:32:00,16.0,13.0,29.96,SSW,211,0.0,1.0,86,0.00,,,0.00,,2013-02-02 14:32:00,
2013-02-02 09:42:00,16.0,13.0,29.96,SSW,211,0.0,1.0,86,0.00,,,0.00,,2013-02-02 14:42:00,
2013-02-02 09:52:00,16.0,13.0,29.96,SSW,211,0.0,0.0,86,0.00,,,0.00,,2013-02-02 14:52:00,
2013-02-02 10:03:00,16.0,13.0,29.95,SE,126,0.0,0.0,86,0.00,,,0.00,,2013-02-02 15:03:00,
2013-02-02 10:12:00,16.0,13.0,29.95,SE,126,0.0,0.0,86,0.00,,,0.00,,2013-02-02 15:12:00,
2013-02-02 10:22:00,16.0,12.0,29.95,SE,126,0.0,0.0,85,0.00,,,0.00,,2013-02-02 15:22:00,
2013-02-02 10:32:00,16.0,12.0,29.95,NE,34,0.0,0.0,85,0.00,,,0.00,,2013-02-02 15:32:00,
2013-02-02 10:42:00,16.0,12.0,29.95,NE,34,0.0,0.0,85,0.00,,,0.00,,2013-02-02 15:42:00,
2013-02-02 10:52:00,17.0,13.0,29.95,NNE,18,1.0,2.0,85,0.00,,,0.00,,2013-02-02 15:52:00,
2013-02-02 11:03:00,17.0,13.0,29.94,NNE,18,0.0,1.0,85,0.00,,,0.00,,2013-02-02 16:03:00,
2013-02-02 11:12:00,17.0,13.0,29.94,NNE,18,0.0,1.0,85,0.00,,,0.00,,2013-02-02 16:12:00,
2013-02-02 11:22:00,16.0,12.0,29.94,NNE,18,0.0,2.0,83,0.00,,,0.00,,2013-02-02 16:22:00,
2013-02-02 11:32:00,17.0,13.0,29.95,NNE,28,0.0,3.0,83,0.00,,,0.00,,2013-02-02 16:32:00,
2013-02-02 11:42:00,17.0,13.0,29.95,NNE,28,0.0,3.0,83,0.00,,,0.00,,2013-02-02 16:42:00,
2013-02-02 11:52:00,17.0,13.0,29.95,NNE,23,0.0,0.0,83,0.00,,,0.00,,2013-02-02 16:52:00,
2013-02-02 12:03:00,17.0,12.0,29.95,NNE,21,0.0,1.0,82,0.00,,,0.00,,2013-02-02 17:03:00,
2013-02-02 12:11:00,17.0,12.0,29.95,NNE,21,0.0,1.0,82,0.00,,,0.00,,2013-02-02 17:11:00,
2013-02-02 12:22:00,17.0,12.0,29.94,NNE,26,1.0,3.0,80,0.00,,,0.00,,2013-02-02 17:22:00,
2013-02-02 12:32:00,17.0,12.0,29.94,NNE,32,0.0,2.0,80,0.00,,,0.00,,2013-02-02 17:32:00,
2013-02-02 12:42:00,17.0,12.0,29.94,NNE,32,0.0,2.0,80,0.00,,,0.00,,2013-02-02 17:42:00,
2013-02-02 12:53:00,17.0,11.0,29.93,NNE,28,0.0,4.0,78,0.00,,,0.00,,2013-02-02 17:53:00,
2013-02-02 13:02:00,18.0,12.0,29.93,NNE,13,0.0,2.0,78,0.00,,,0.00,,2013-02-02 18:02:00,
2013-02-02 13:12:00,18.0,12.0,29.93,NNE,13,0.0,2.0,78,0.00,,,0.00,,2013-02-02 18:12:00,
2013-02-02 13:22:00,18.0,12.0,29.92,NNE,15,0.0,2.0,78,0.00,,,0.00,,2013-02-02 18:22:00,
2013-02-02 13:32:00,19.0,12.0,29.92,NNE,22,0.0,3.0,75,0.00,,,0.00,,2013-02-02 18:32:00,
2013-02-02 13:42:00,19.0,12.0,29.92,NNE,22,0.0,3.0,75,0.00,,,0.00,,2013-02-02 18:42:00,
2013-02-02 13:52:00,19.0,12.0,29.92,ENE,76,0.0,0.0,73,0.00,,,0.00,,2013-02-02 18:52:00,
2013-02-02 14:02:00,20.0,11.0,29.92,NNE,15,0.0,4.0,69,0.00,,,0.00,,2013-02-02 19:02:00,
2013-02-02 14:12:00,20.0,11.0,29.92,NNE,15,0.0,4.0,69,0.00,,,0.00,,2013-02-02 19:12:00,
2013-02-02 14:22:00,20.0,11.0,29.92,NNW,339,0.0,3.0,66,0.00,,,0.00,,2013-02-02 19:22:00,
2013-02-02 14:32:00,19.0,9.0,29.91,NNE,21,0.0,5.0,64,0.00,,,0.00,,2013-02-02 19:32:00,
2013-02-02 14:42:00,19.0,9.0,29.91,NNE,21,0.0,5.0,64,0.00,,,0.00,,2013-02-02 19:42:00,
2013-02-02 14:52:00,19.0,9.0,29.92,North,0,0.0,4.0,64,0.00,,,0.00,,2013-02-02 19:52:00,
2013-02-02 15:01:00,19.0,9.0,29.92,WNW,303,0.0,2.0,63,0.00,,,0.00,,2013-02-02 20:01:00,
2013-02-02 15:11:00,19.0,9.0,29.92,WNW,303,0.0,2.0,63,0.00,,,0.00,,2013-02-02 20:11:00,
2013-02-02 15:22:00,19.0,9.0,29.92,NNW,348,0.0,4.0,63,0.00,,,0.00,,2013-02-02 20:22:00,
2013-02-02 15:32:00,19.0,8.0,29.93,WNW,289,0.0,4.0,61,0.00,,,0.00,,2013-02-02 20:32:00,
2013-02-02 15:42:00,19.0,8.0,29.93,WNW,289,0.0,4.0,61,0.00,,,0.00,,2013-02-02 20:42:00,
2013-02-02 15:52:00,19.0,9.0,29.93,WSW,245,3.0,3.0,64,0.00,,,0.00,,2013-02-02 20:52:00,
2013-02-02 16:02:00,18.0,8.0,29.93,North,9,0.0,3.0,63,0.00,,,0.00,,2013-02-02 21:02:00,
2013-02-02 16:11:00,18.0,8.0,29.93,North,9,0.0,3.0,63,0.00,,,0.00,,2013-02-02 21:11:00,
2013-02-02 16:21:00,18.0,8.0,29.93,WNW,294,0.0,1.0,64,0.00,,,0.00,,2013-02-02 21:21:00,
2013-02-02 16:32:00,18.0,8.0,29.93,WNW,295,0.0,0.0,63,0.00,,,0.00,,2013-02-02 21:32:00,
2013-02-02 16:42:00,18.0,8.0,29.93,WNW,295,0.0,0.0,63,0.00,,,0.00,,2013-02-02 21:42:00,
2013-02-02 16:52:00,18.0,8.0,29.93,ENE,57,0.0,1.0,65,0.00,,,0.00,,2013-02-02 21:52:00,
2013-02-02 17:02:00,18.0,8.0,29.94,North,5,0.0,2.0,63,0.00,,,0.00,,2013-02-02 22:02:00,
2013-02-02 17:12:00,18.0,8.0,29.94,North,5,0.0,2.0,63,0.00,,,0.00,,2013-02-02 22:12:00,
2013-02-02 17:21:00,18.0,8.0,29.94,North,349,0.0,0.0,64,0.00,,,0.00,,2013-02-02 22:21:00,
2013-02-02 17:32:00,17.0,7.0,29.94,NNE,25,0.0,2.0,63,0.00,,,0.00,,2013-02-02 22:32:00,
2013-02-02 17:42:00,17.0,7.0,29.94,NNE,25,0.0,2.0,63,0.00,,,0.00,,2013-02-02 22:42:00,
2013-02-02 17:52:00,17.0,7.0,29.95,NNW,348,0.0,1.0,63,0.00,,,0.00,,2013-02-02 22:52:00,
2013-02-02 18:02:00,17.0,7.0,29.95,NNE,18,0.0,2.0,64,0.00,,,0.00,,2013-02-02 23:02:00,
2013-02-02 18:11:00,17.0,7.0,29.95,NNE,18,0.0,2.0,64,0.00,,,0.00,,2013-02-02 23:11:00,
2013-02-02 18:22:00,16.0,6.0,29.96,NNE,24,0.0,1.0,65,0.00,,,0.00,,2013-02-02 23:22:00,
2013-02-02 18:32:00,16.0,7.0,29.96,NNE,24,0.0,0.0,66,0.00,,,0.00,,2013-02-02 23:32:00,
2013-02-02 18:42:00,16.0,7.0,29.96,NNE,24,0.0,0.0,66,0.00,,,0.00,,2013-02-02 23:42:00,
2013-02-02 18:52:00,16.0,6.0,29.96,North,10,0.0,0.0,65,0.00,,,0.00,,2013-02-02 23:52:00,
2013-02-02 19:02:00,15.0,6.0,29.97,North,11,0.0,0.0,67,0.00,,,0.00,,2013-02-03 00:02:00,
2013-02-02 19:11:00,15.0,6.0,29.97,North,11,0.0,0.0,67,0.00,,,0.00,,2013-02-03 00:11:00,
2013-02-02 19:22:00,14.0,5.0,29.97,North,11,0.0,0.0,67,0.00,,,0.00,,2013-02-03 00:22:00,
2013-02-02 19:32:00,13.0,5.0,29.97,North,11,0.0,0.0,70,0.00,,,0.00,,2013-02-03 00:32:00,
2013-02-02 19:42:00,13.0,5.0,29.97,North,11,0.0,0.0,70,0.00,,,0.00,,2013-02-03 00:42:00,
2013-02-02 19:52:00,12.0,5.0,29.97,North,10,0.0,0.0,73,0.00,,,0.00,,2013-02-03 00:52:00,
2013-02-02 20:02:00,11.0,4.0,29.97,North,10,0.0,0.0,74,0.00,,,0.00,,2013-02-03 01:02:00,
2013-02-02 20:11:00,10.0,4.0,29.98,North,11,0.0,0.0,76,0.00,,,0.00,,2013-02-03 01:11:00,
2013-02-02 20:21:00,10.0,4.0,29.98,North,11,0.0,0.0,76,0.00,,,0.00,,2013-02-03 01:21:00,
2013-02-02 20:32:00,9.0,3.0,29.97,North,11,0.0,0.0,77,0.00,,,0.00,,2013-02-03 01:32:00,
2013-02-02 20:42:00,9.0,3.0,29.97,North,11,0.0,0.0,77,0.00,,,0.00,,2013-02-03 01:42:00,
2013-02-02 20:52:00,9.0,4.0,29.97,North,11,0.0,0.0,79,0.00,,,0.00,,2013-02-03 01:52:00,
2013-02-02 21:01:00,8.0,3.0,29.97,North,10,0.0,0.0,79,0.00,,,0.00,,2013-02-03 02:01:00,
2013-02-02 21:11:00,8.0,3.0,29.97,North,10,0.0,0.0,79,0.00,,,0.00,,2013-02-03 02:11:00,
2013-02-02 21:21:00,8.0,3.0,29.97,North,11,0.0,0.0,80,0.00,,,0.00,,2013-02-03 02:21:00,
2013-02-02 21:32:00,7.0,2.0,29.96,North,11,0.0,0.0,81,0.00,,,0.00,,2013-02-03 02:32:00,
2013-02-02 21:42:00,7.0,2.0,29.96,North,11,0.0,0.0,81,0.00,,,0.00,,2013-02-03 02:42:00,
2013-02-02 21:52:00,7.0,3.0,29.96,North,11,0.0,0.0,82,0.00,,,0.00,,2013-02-03 02:52:00,
2013-02-02 22:02:00,6.0,2.0,29.96,North,11,0.0,0.0,83,0.00,,,0.00,,2013-02-03 03:02:00,
2013-02-02 22:11:00,6.0,2.0,29.96,North,10,0.0,0.0,84,0.00,,,0.00,,2013-02-03 03:11:00,
2013-02-02 22:22:00,6.0,2.0,29.96,North,10,0.0,0.0,84,0.00,,,0.00,,2013-02-03 03:22:00,
2013-02-02 22:32:00,6.0,2.0,29.96,North,11,0.0,0.0,84,0.00,,,0.00,,2013-02-03 03:32:00,
2013-02-02 22:42:00,6.0,2.0,29.96,North,11,0.0,0.0,84,0.00,,,0.00,,2013-02-03 03:42:00,
2013-02-02 22:52:00,6.0,2.0,29.96,North,11,0.0,0.0,85,0.00,,,0.00,,2013-02-03 03:52:00,
2013-02-02 23:01:00,6.0,2.0,29.96,North,11,0.0,0.0,85,0.00,,,0.00,,2013-02-03 04:01:00,
2013-02-02 23:11:00,6.0,2.0,29.96,North,11,0.0,0.0,85,0.00,,,0.00,,2013-02-03 04:11:00,
2013-02-02 23:21:00,5.0,2.0,29.95,North,11,0.0,0.0,85,0.00,,,0.00,,2013-02-03 04:21:00,
2013-02-02 23:32:00,5.0,2.0,29.95,North,10,0.0,0.0,85,0.00,,,0.00,,2013-02-03 04:32:00,
2013-02-02 23:42:00,5.0,2.0,29.95,North,10,0.0,0.0,85,0.00,,,0.00,,2013-02-03 04:42:00,
2013-02-02 23:52:00,5.0,2.0,29.95,North,11,0.0,0.0,85,0.00,,,0.00,,2013-02-03 04:52:00,